Location: Killam
(52.7910°N, 111.8608°W)
Time: 08:36:49
(UTC+00:00)

Transit 4A - All Passes

Search period start: 19 February 2026 00:00
Search period end: 01 March 2026 00:00
Orbit: 865 x 976 km, 66.8° (Epoch: 18 February)

Date Brightness Start Highest point End Pass type
(mag) Time Alt. Az. Time Alt. Az. Time Alt. Az.
19 Feb - 09:18:35 10° ESE 09:20:38 12° E 09:22:41 10° E visible
19 Feb - 10:59:54 10° SSW 11:05:39 58° ESE 11:11:35 10° NE visible
19 Feb - 12:46:34 10° WSW 12:52:13 43° NW 12:58:03 10° NE visible
19 Feb - 14:35:23 10° WNW 14:40:08 23° N 14:44:59 10° NE daylight
19 Feb - 16:23:29 10° NW 16:28:31 25° NNE 16:33:38 10° ENE daylight
19 Feb - 18:10:04 10° NW 18:16:10 55° NE 18:22:22 10° ESE daylight
19 Feb - 19:56:37 10° NW 20:02:28 44° WSW 20:08:26 10° S daylight
20 Feb - 09:25:16 10° SE 09:28:59 17° ESE 09:32:46 10° ENE visible
20 Feb - 11:08:27 10° SSW 11:14:20 77° SE 11:20:25 10° NE visible
20 Feb - 12:55:46 10° W 13:01:13 36° NNW 13:06:51 10° NE visible
20 Feb - 14:44:41 10° NW 14:49:19 22° N 14:54:05 10° NE daylight
20 Feb - 16:32:23 10° NW 16:37:39 28° NNE 16:43:01 10° E daylight
20 Feb - 18:18:50 10° NW 18:25:03 69° NE 18:31:23 10° SE daylight
20 Feb - 20:05:35 10° NW 20:11:03 33° WSW 20:16:35 10° S daylight
21 Feb - 09:32:48 10° SSE 09:37:24 24° ESE 09:42:08 10° ENE visible
21 Feb - 11:17:10 10° SW 11:23:05 82° NW 11:29:14 10° NE visible
21 Feb - 13:05:02 10° W 13:10:17 31° NNW 13:15:42 10° NE visible
21 Feb - 14:53:53 10° NW 14:58:32 22° N 15:03:17 10° NE daylight
21 Feb - 16:41:14 10° NW 16:46:45 33° NNE 16:52:22 10° E daylight
21 Feb - 18:27:36 10° NW 18:33:52 87° NE 18:40:15 10° SE daylight
21 Feb - 20:14:42 10° WNW 20:19:33 24° WSW 20:24:28 10° SSW daylight
22 Feb - 09:40:43 10° S 09:45:55 34° ESE 09:51:15 10° NE visible
22 Feb - 11:26:02 10° SW 11:31:54 64° NW 11:38:01 10° NE visible
22 Feb - 13:14:21 10° WNW 13:19:24 27° NNW 13:24:35 10° NE visible
22 Feb - 15:03:01 10° NW 15:07:45 23° N 15:12:34 10° ENE daylight
22 Feb - 16:50:01 10° NW 16:55:47 38° NNE 17:01:40 10° E daylight
22 Feb - 18:36:24 10° NW 18:42:37 73° SW 18:48:56 10° SSE daylight
22 Feb - 20:24:05 10° WNW 20:28:00 17° WSW 20:31:57 10° SW daylight
23 Feb - 09:48:54 10° S 09:54:29 46° ESE 10:00:14 10° NE visible
23 Feb - 11:35:02 10° WSW 11:40:48 51° NW 11:46:47 10° NE visible
23 Feb - 13:23:41 10° WNW 13:28:33 24° NNW 13:33:32 10° NE visible
23 Feb - 15:12:03 10° NW 15:16:56 24° NNE 15:21:55 10° ENE daylight
23 Feb - 16:58:48 10° NW 17:04:47 47° NE 17:10:52 10° ESE daylight
23 Feb - 18:45:14 10° NW 18:51:19 55° WSW 18:57:29 10° SSE daylight
23 Feb - 20:34:08 10° W 20:36:22 12° W 20:38:37 10° WSW daylight
24 Feb - 08:15:23 10° SE 08:18:01 13° E 08:20:40 10° ENE visible
24 Feb - 09:57:18 10° SSW 10:03:06 62° ESE 10:09:07 10° NE visible
24 Feb - 11:44:08 10° WSW 11:49:46 41° NW 11:55:34 10° NE visible
24 Feb - 13:33:00 10° WNW 13:37:44 23° N 13:42:34 10° NE visible
24 Feb - 15:21:00 10° NW 15:26:06 26° NNE 15:31:18 10° ENE daylight
24 Feb - 17:07:33 10° NW 17:13:42 58° NE 17:19:58 10° ESE daylight
24 Feb - 18:54:08 10° NW 18:59:56 41° WSW 19:05:49 10° S daylight
25 Feb - 08:22:23 10° SSE 08:26:23 19° ESE 08:30:27 10° ENE visible
25 Feb - 10:05:54 10° SSW 10:11:49 82° SE 10:17:57 10° NE visible
25 Feb - 11:53:22 10° W 11:58:47 34° NNW 12:04:22 10° NE visible
25 Feb - 13:42:16 10° NW 13:46:56 22° N 13:51:42 10° NE visible
25 Feb - 15:29:54 10° NW 15:35:14 29° NNE 15:40:41 10° E daylight
25 Feb - 17:16:20 10° NW 17:22:34 73° NE 17:28:55 10° SE daylight
25 Feb - 19:03:08 10° NW 19:08:30 30° WSW 19:13:55 10° S daylight
26 Feb - 08:30:02 10° SSE 08:34:50 26° ESE 08:39:45 10° NE visible
26 Feb - 10:14:39 10° SW 10:20:35 77° NW 10:26:45 10° NE visible
26 Feb - 12:02:39 10° W 12:07:52 30° NNW 12:13:13 10° NE visible
26 Feb - 13:51:27 10° NW 13:56:09 22° N 14:00:55 10° NE daylight
26 Feb - 15:38:44 10° NW 15:44:19 34° NNE 15:50:01 10° E daylight
26 Feb - 17:25:06 10° NW 17:31:22 88° WSW 17:37:45 10° SE daylight
26 Feb - 19:12:18 10° WNW 19:16:59 22° WSW 19:21:43 10° SSW daylight
27 Feb - 08:38:01 10° S 08:43:20 36° ESE 08:48:49 10° NE visible
27 Feb - 10:23:33 10° SW 10:29:26 60° NW 10:35:31 10° NE visible
27 Feb - 12:11:58 10° WNW 12:16:58 26° NNW 12:22:08 10° NE visible
27 Feb - 14:00:34 10° NW 14:05:21 23° N 14:10:14 10° ENE daylight
27 Feb - 15:47:31 10° NW 15:53:21 40° NE 15:59:17 10° ESE daylight
27 Feb - 17:33:54 10° NW 17:40:07 68° WSW 17:46:25 10° SSE daylight
27 Feb - 19:21:47 10° WNW 19:25:25 16° WSW 19:29:03 10° SW daylight
28 Feb - 08:46:16 10° SSW 08:51:56 49° ESE 08:57:46 10° NE visible
28 Feb - 10:32:35 10° WSW 10:38:21 48° NW 10:44:18 10° NE visible
28 Feb - 12:21:18 10° WNW 12:26:09 24° NNW 12:31:06 10° NE visible
28 Feb - 14:09:35 10° NW 14:14:32 24° NNE 14:19:35 10° ENE daylight
28 Feb - 15:56:17 10° NW 16:02:19 49° NE 16:08:28 10° ESE daylight
28 Feb - 17:42:44 10° NW 17:48:47 51° WSW 17:54:55 10° SSE daylight
28 Feb - 19:32:16 10° W 19:33:45 11° W 19:35:16 10° WSW daylight
